Вернуться в каталог

STARLINK-32268

АктивенСвязьVLEO
NORAD 60372·PAYLOAD·🇺🇸 United States

Запущен Aug 4, 2024 с Vandenberg Space Force Base

Loading…

Ближайшие Пролёты (ближайшие 24 часа)

TLE

СвежийSource: CelesTrak SupGP

Эпоха: Sep 14, 2026, 13:57 UTC

1 60372C 24138T   26257.58173611  .00063782  00000+0  18850-2 0  2576
2 60372  53.1571 151.3867 0001231  94.0021 120.6935 15.34349982    11

Отслеживайте STARLINK-32268 в реальном времени с AllMySat

Download on the App Store